Wind_Speed
55 56 56 57 58 58 59 59 59 58 57 57 58 60 61 61 61 62 63 64 64 64 63 63 63 62 62 61 60 58 57 56 54 54 53 52 51 50
54 55 56 56 58 58 58 59 59 59 58 57 58 59 60 61 62 62 63 63 64 65 65 65 64 64 63 63 62 61 60 59 57 55 55 55 53 53
53 53 54 55 56 57 57 57 58 58 58 57 58 58 58 60 60 61 62 63 63 64 65 66 66 66 66 65 65 64 63 62 61 59 58 57 56 55
51 51 52 53 53 54 55 55 56 56 56 56 56 56 56 57 59 59 60 61 62 63 64 65 66 67 67 68 67 67 67 66 64 63 61 60 58 57
48 49 50 51 52 52 53 54 54 55 55 55 54 55 55 55 56 57 58 59 60 61 63 64 65 66 67 68 68 69 69 68 67 66 66 63 60 59
46 47 47 49 50 51 52 52 53 54 54 54 54 53 54 55 55 56 56 57 58 59 61 62 64 65 66 67 69 69 70 70 69 69 68 66 63 62
45 45 46 47 48 49 50 51 52 52 53 53 53 54 54 55 55 55 55 56 56 58 59 60 62 63 65 66 67 68 69 70 70 70 69 68 66 64
45 44 44 45 46 47 48 50 50 51 52 52 52 53 53 54 55 55 55 55 55 56 58 59 59 61 63 65 66 67 68 68 69 69 70 69 68 67
44 44 44 44 45 46 48 49 49 50 51 52 52 51 52 53 54 54 54 54 54 54 56 56 58 60 61 62 64 65 66 67 68 68 69 69 68 68
43 44 44 44 45 45 47 48 49 49 51 51 51 51 52 52 52 53 54 54 54 54 55 55 55 57 58 59 61 62 63 64 66 67 68 68 67 68
41 42 43 44 44 44 45 46 47 48 50 50 49 49 49 49 50 51 52 53 53 53 54 54 54 55 56 57 58 60 61 62 64 65 66 67 67 67
39 40 41 42 43 43 44 44 44 46 47 48 47 47 47 48 48 49 49 50 51 50 51 52 53 54 54 54 55 57 58 59 61 62 63 64 64 65
36 37 37 38 39 40 40 41 41 42 44 45 45 45 45 46 46 47 48 48 49 48 49 50 51 52 53 53 54 55 56 57 58 59 60 61 61 62
34 35 34 35 35 36 37 38 39 41 42 43 43 43 43 44 45 46 46 48 48 48 48 49 50 50 51 51 51 52 53 54 55 57 58 59 60 61
33 33 33 33 34 35 36 37 38 39 41 41 42 43 42 42 43 44 46 47 47 47 48 48 49 49 49 50 50 50 51 52 53 55 56 58 58 59
32 32 32 32 33 34 35 36 37 38 39 40 40 42 42 42 42 42 43 44 45 46 47 47 47 48 48 49 49 50 50 50 51 52 53 55 55 57
32 32 31 32 32 33 34 35 35 36 37 38 39 40 41 41 41 41 41 42 42 43 44 45 47 47 47 48 48 49 49 50 50 51 51 52 53 55
32 32 31 32 32 33 34 34 35 35 35 36 36 38 39 40 40 40 40 39 40 40 41 42 43 44 45 45 46 46 47 47 48 49 50 50 50 51
32 31 31 31 32 32 32 33 33 33 34 34 34 35 36 38 38 39 39 38 38 39 39 39 40 41 42 42 42 44 44 45 46 46 47 47 48 48
30 30 30 31 31 31 31 31 31 32 32 32 32 32 33 35 36 37 37 37 37 37 37 38 38 39 40 40 40 40 42 42 43 44 45 46 47 47
28 29 29 29 30 30 29 28 28 29 30 30 31 31 31 32 33 34 35 36 36 36 36 37 37 38 38 38 37 38 40 41 41 41 42 43 43 44
27 27 27 27 28 27 27 26 26 27 27 28 29 30 30 31 31 32 33 34 34 34 35 35 36 37 37 37 36 36 37 39 39 38 39 39 39 39
25 25 25 25 24 24 24 25 25 25 26 26 26 26 27 28 29 30 31 31 32 32 33 34 35 35 35 34 34 34 35 37 37 37 37 37 37 36
Wind_Direction
265 264 262 260 259 258 258 257 256 255 254 255 255 255 255 255 255 253 252 252 251 250 250 250 250 249 249 250 250 250 251 252 253 254 254 254 253 254
267 266 264 263 261 259 258 258 257 257 256 255 255 255 255 255 254 254 252 251 250 249 249 250 250 249 249 250 250 250 250 251 252 252 253 253 253 253
267 266 264 263 261 259 258 258 257 257 257 256 255 255 255 255 254 254 253 252 251 251 250 249 249 248 248 248 248 249 249 250 251 251 251 253 253 253
266 265 264 262 260 258 257 257 257 256 257 256 256 255 255 254 254 253 253 252 252 251 251 250 248 248 248 248 248 248 248 249 250 251 251 252 253 253
266 265 264 262 260 259 258 257 257 256 256 256 255 255 255 255 254 253 253 253 252 252 251 251 250 249 248 248 248 248 248 249 250 250 250 250 252 253
267 265 264 262 261 260 258 257 256 256 256 256 255 255 255 255 255 255 255 254 253 252 252 251 251 250 249 249 249 249 249 249 249 250 250 250 251 252
268 266 264 262 261 260 259 257 256 255 255 255 255 255 255 256 256 256 256 255 254 254 253 252 251 251 250 250 250 250 250 249 249 249 249 249 250 251
268 267 266 263 262 261 259 258 256 255 255 255 256 256 256 256 257 257 257 256 255 255 255 253 252 251 251 251 250 250 250 250 249 249 249 249 249 250
268 267 267 265 263 262 260 258 257 256 255 256 256 256 257 257 257 257 257 256 256 256 255 254 254 253 252 251 250 250 250 250 249 249 248 248 249 249
269 268 267 266 264 264 263 261 259 256 255 256 257 257 257 257 257 257 257 257 256 256 256 256 256 255 253 252 251 250 250 250 249 249 248 248 248 248
271 270 268 267 265 264 264 263 261 258 258 257 256 255 255 256 257 257 257 257 257 257 256 256 255 254 253 252 251 250 250 250 249 249 248 248 248 248
272 272 271 268 266 264 264 264 262 260 258 257 256 255 255 255 256 256 256 257 257 256 255 256 255 254 253 251 251 251 250 250 249 248 248 248 248 248
274 274 272 270 268 266 265 264 263 261 259 258 257 257 256 256 255 256 256 257 258 257 255 255 255 254 253 252 250 251 250 249 248 247 246 247 248 248
276 274 272 271 269 267 266 266 264 263 261 259 258 258 257 256 256 256 257 257 258 258 256 255 255 254 253 252 251 251 250 249 248 246 245 246 248 248
277 275 273 272 271 270 269 268 267 265 263 261 260 258 258 258 258 258 258 258 258 258 258 257 257 255 254 253 252 251 250 249 248 247 246 246 247 247
277 275 274 274 273 272 271 270 269 267 265 263 261 259 258 257 258 258 258 258 258 258 258 258 257 257 256 255 254 253 251 250 250 249 249 247 247 247
277 276 274 274 273 272 272 272 270 269 267 265 262 259 258 257 258 258 258 257 258 258 257 257 256 257 257 257 255 253 252 251 251 251 250 249 248 248
277 278 277 275 274 274 273 272 271 269 268 266 264 261 259 258 257 257 257 257 257 256 256 256 256 256 257 256 256 254 252 250 250 250 249 248 248 248
277 278 278 277 277 276 275 273 270 269 268 267 265 263 260 258 257 257 257 257 256 255 256 256 256 255 256 256 255 254 252 250 250 248 248 248 247 248
278 279 279 280 279 278 277 275 272 270 268 267 266 265 263 260 258 257 256 256 256 255 256 256 256 256 256 257 256 253 252 251 250 249 248 248 247 248
281 282 281 281 281 280 279 277 274 271 270 267 266 265 264 262 259 258 256 255 256 256 255 256 256 256 257 257 255 253 252 251 250 249 248 248 249 249
282 283 284 284 283 281 279 278 276 274 271 269 268 267 265 264 261 258 256 255 255 256 257 257 258 258 258 257 256 254 252 251 249 248 247 248 249 249
283 283 284 283 283 281 280 279 277 276 274 272 269 268 266 265 262 259 257 256 257 258 258 258 257 257 257 257 256 255 252 249 247 246 247 247 249 250
Height
5568 5569 5571 5574 5576 5578 5581 5584 5588 5593 5598 5602 5604 5606 5608 5612 5616 5620 5624 5629 5634 5638 5643 5648 5653 5658 5663 5667 5672 5676 5680 5684 5688 5692 5696 5699 5703 5706
5552 5553 5555 5557 5559 5561 5563 5566 5569 5573 5578 5584 5586 5588 5591 5594 5598 5601 5606 5610 5615 5620 5624 5629 5635 5640 5645 5650 5655 5660 5664 5668 5673 5677 5681 5685 5688 5692
5536 5537 5538 5540 5542 5544 5546 5549 5552 5554 5559 5565 5568 5571 5573 5576 5580 5583 5587 5591 5596 5600 5605 5610 5615 5621 5626 5632 5637 5642 5647 5651 5656 5661 5665 5669 5673 5678
5520 5521 5522 5523 5525 5527 5530 5533 5535 5538 5541 5546 5550 5553 5556 5559 5562 5565 5569 5573 5578 5582 5586 5591 5596 5602 5607 5613 5618 5623 5629 5634 5639 5644 5650 5654 5658 5661
5505 5506 5507 5508 5510 5512 5514 5516 5519 5522 5524 5528 5533 5536 5539 5542 5545 5548 5552 5556 5560 5564 5568 5572 5577 5582 5588 5593 5598 5604 5610 5616 5622 5627 5630 5636 5640 5644
5491 5491 5492 5493 5495 5496 5498 5501 5503 5506 5508 5512 5516 5520 5523 5526 5528 5532 5535 5539 5542 5546 5550 5554 5559 5563 5569 5574 5581 5586 5590 5595 5601 5606 5612 5617 5622 5626
5477 5477 5478 5479 5480 5481 5483 5485 5487 5490 5493 5496 5500 5503 5507 5509 5512 5515 5518 5521 5525 5528 5532 5537 5542 5547 5550 5555 5559 5565 5570 5575 5580 5586 5592 5598 5603 5608
5463 5464 5464 5465 5466 5467 5468 5470 5472 5474 5477 5480 5483 5487 5491 5493 5495 5498 5501 5504 5510 5514 5514 5519 5522 5527 5531 5536 5540 5545 5549 5554 5560 5566 5571 5577 5583 5588
5450 5450 5451 5451 5452 5453 5454 5455 5457 5459 5461 5464 5467 5471 5474 5478 5480 5482 5484 5486 5491 5495 5496 5501 5505 5509 5513 5516 5520 5525 5529 5534 5540 5545 5551 5557 5563 5569
5436 5437 5437 5438 5438 5439 5440 5441 5443 5445 5447 5449 5453 5456 5457 5459 5462 5465 5467 5470 5475 5478 5479 5483 5487 5490 5494 5498 5502 5505 5510 5515 5520 5525 5531 5538 5544 5549
5423 5423 5424 5424 5425 5425 5426 5427 5429 5430 5431 5433 5436 5438 5441 5443 5445 5447 5450 5453 5457 5462 5463 5466 5470 5473 5476 5480 5484 5488 5492 5496 5501 5506 5512 5518 5524 5529
5411 5411 5411 5411 5411 5410 5411 5413 5414 5416 5417 5419 5421 5424 5426 5428 5430 5432 5434 5437 5440 5445 5447 5449 5452 5455 5459 5464 5467 5470 5474 5478 5483 5488 5493 5499 5505 5510
5399 5399 5398 5398 5398 5398 5398 5399 5401 5402 5403 5405 5407 5409 5411 5413 5415 5417 5419 5421 5424 5428 5431 5433 5436 5438 5442 5447 5451 5454 5457 5461 5465 5470 5475 5481 5486 5491
5388 5388 5387 5386 5386 5386 5386 5387 5388 5389 5390 5392 5394 5396 5398 5400 5402 5404 5406 5407 5409 5412 5415 5417 5420 5423 5426 5430 5435 5438 5441 5444 5448 5453 5458 5463 5468 5473
5377 5377 5376 5376 5375 5375 5375 5375 5375 5376 5377 5379 5381 5383 5385 5386 5388 5390 5392 5394 5395 5398 5400 5402 5405 5408 5410 5414 5418 5422 5425 5429 5432 5437 5442 5446 5451 5456
5367 5366 5366 5365 5365 5364 5364 5364 5364 5364 5365 5366 5368 5370 5371 5373 5374 5376 5378 5380 5382 5385 5386 5388 5390 5393 5396 5399 5403 5407 5410 5414 5418 5421 5426 5430 5435 5440
5357 5356 5356 5355 5354 5354 5353 5353 5353 5352 5353 5354 5355 5357 5358 5360 5361 5363 5365 5366 5368 5371 5374 5375 5377 5379 5382 5385 5388 5392 5395 5399 5403 5407 5410 5415 5420 5424
5347 5346 5345 5345 5344 5343 5343 5342 5342 5342 5342 5342 5343 5344 5346 5347 5349 5350 5352 5354 5356 5358 5360 5362 5364 5366 5369 5372 5374 5377 5381 5385 5388 5392 5395 5400 5405 5409
5337 5336 5335 5335 5334 5333 5332 5332 5331 5331 5331 5331 5332 5333 5334 5335 5337 5338 5340 5342 5344 5346 5348 5350 5351 5353 5356 5360 5363 5364 5367 5371 5374 5378 5381 5386 5391 5395
5328 5327 5326 5325 5324 5323 5322 5322 5321 5321 5321 5321 5321 5322 5323 5324 5325 5327 5329 5330 5332 5334 5336 5338 5340 5341 5344 5347 5350 5352 5354 5357 5361 5364 5368 5372 5377 5381
5319 5318 5317 5316 5314 5313 5312 5311 5311 5311 5311 5311 5311 5312 5313 5313 5315 5316 5318 5319 5321 5323 5325 5327 5328 5330 5331 5334 5336 5340 5342 5344 5348 5351 5355 5359 5363 5368
5311 5310 5309 5307 5306 5305 5304 5303 5302 5302 5302 5301 5302 5302 5303 5303 5304 5305 5307 5309 5311 5312 5314 5316 5317 5318 5320 5322 5325 5328 5331 5333 5336 5339 5343 5347 5351 5356
5303 5302 5301 5299 5298 5297 5296 5295 5294 5294 5293 5293 5293 5293 5293 5294 5294 5295 5297 5299 5300 5302 5303 5305 5306 5308 5309 5311 5313 5316 5318 5321 5324 5328 5332 5336 5340 5343